カタログに戻る

IRIDE-MS1-EAG2-4

運用中科学SSO
NORAD 66698·PAYLOAD·🇮🇹 Italy

打ち上げ Nov 28, 2025 から Vandenberg Space Force Base

Loading…

次のパス (今後24時間)

TLE

最新Source: Space-Track

元期: Sep 13, 2026, 22:47 UTC

1 66698U 25276AJ  26256.94994365  .00005363  00000-0  24798-3 0  9997
2 66698  97.4113 328.9292 0005267  66.5254 293.6534 15.20568004 43904

AllMySatでIRIDE-MS1-EAG2-4をリアルタイム追跡

Download on the App Store